SL-14 DEB

Satellite information

Favourite Embed

Satellite Type and Status

DEBRISIN ORBIT

Key statistics

Satellite SL-14 DEB at a glance.

Uptime

12501

Days in orbit

Revolutions

≈ 12.6

Per day

Orbit

LEO

Low Earth Orbit

Inclination

82.5

Latest

Satellite identification and parameters

Extended collection of information and parameters for SL-14 DEB.

Object identification

Identified? True

Debris? True

Object name: SL-14 DEB

International designator: 1991-068AM

Object number (NORAD): 26026

Object ID (CCSDS): 26026

Country: COMMONWEALTH OF INDEPENDENT STATES (CIS)

Current information (Y/N): Y

RCS size: SMALL

Orbital parameters

Period: 113.963 minutes

Inclination: 82.5124 deg

SMA: 7786.375 km

Apoapsis: 1482.546 km

Periapsis: 1333.934 km

RAAN: 51.3142 deg

Eccentricy: 0.0095431

Argument of periapsis: 196.2014 deg

Mean anomaly: 192.1813 deg

Mean motion: 12.6357137 rev/day

Mean motion (dot): 0.00000069 rev/day2

B* drag term: 0.00031730791 1/REarth

Two-line elements (TLE)

Creation date: Dec. 17, 2025, 11:34 a.m.

Reference frame: TEME

Reference center: EARTH

Epoch: Dec. 17, 2025, 3:48 a.m. UTC

TLE line 0: 0 SL-14 DEB

TLE line 1: 1 26026U 91068AM 25351.15887550 .00000069 00000-0 31731-3 0 9998

TLE line 2: 2 26026 82.5124 51.3142 0095431 196.2014 192.1813 12.63571370214031

Live tracking on map

Real-time ground track for satellite SL-14 DEB.

In-orbit conjunctions

A list of the most updated potential collisions computed for object SL-14 DEB.

Target Orbit TCA Probability of collision Miss distance Type
COSMOS 1291 LEO 2025-11-13 20:19:25 0.003228249 37.0 (m) PAYLOAD

Associated space launch

Second generation store-dump military communications satellite

SL-14 DEB was lifted into orbit during the mission ‘Tsiklon-3 | Strela-3 67 to 72’, on board a Tsiklon-3 space rocket.

The launch took place on Sept. 28, 1991, 7:05 a.m. from 32/2.

For more information about the launch, click the button.

Launch to space Tsiklon-3 | Strela-3 67 to 72
Tsiklon-3 | Strela-3 67 to 72

Agency: N/A

Status: Launch Successful

Launch date: Sept. 28, 1991, 7:05 a.m. UTC

Rocket: Tsiklon-3

Launch pad: 32/2

Location: Plesetsk Cosmodrome, Russian Federation

...

Latest news about this satellite

There are no fresh news available about this satellite. Check back as we update our databases every day.


Newsletter sign-up

Weekly statistics, charts and insights to help you stay on top of the space industry.